User: anonymous   Login
Location: State Camp
(41.2367°N, 77.7828°W)
Time: 05:44:59
(UTC-05:00)
Language:

ADEOS Rocket - Orbit

View from above orbital plane
View from above orbital plane
View from above satellite
View from above satellite

Ground track
Ground track

The orbit data is extracted from the following two-line orbital elements,

1 24279U 96046C   16041.12081226 -.00000008  00000-0  31230-4 0  9995
2 24279  98.6939  41.6639 0301053 106.4917 298.6687 13.47042146957862
Epoch (UTC): 10 February 2016 02:53:58
Eccentricity: 0.0301053
inclination: 98.6939°
perigee height: 858 km
apogee height: 1308 km
right ascension of ascending node: 41.6639°
argument of perigee: 106.4917°
revolutions per day: 13.47042146
mean anomaly at epoch: 298.6687°
orbit number at epoch: 95786

The dashed part of the orbit path shows where the satellite is in the earth's shadow,  

DLR